TimeEDT,TemperatureF,Dew PointF,Humidity,Sea Level PressureIn,VisibilityMPH,Wind Direction,Wind SpeedMPH,Gust SpeedMPH,PrecipitationIn,Events,Conditions,WindDirDegrees,DateUTC
12:53 AM,70.0,64.0,81,29.77,10.0,South,16.1,21.9,N/A,,Overcast,170,2013-09-22 04:53:00
1:53 AM,70.0,64.0,81,29.74,10.0,South,16.1,24.2,N/A,,Mostly Cloudy,180,2013-09-22 05:53:00
2:53 AM,70.0,64.9,84,29.72,10.0,South,18.4,24.2,N/A,,Clear,180,2013-09-22 06:53:00
3:53 AM,69.1,64.0,84,29.70,10.0,South,16.1,24.2,N/A,,Partly Cloudy,180,2013-09-22 07:53:00
4:53 AM,69.1,64.9,87,29.70,10.0,South,17.3,-,N/A,,Mostly Cloudy,180,2013-09-22 08:53:00
5:53 AM,70.0,66.0,87,29.68,10.0,South,16.1,25.3,N/A,,Overcast,180,2013-09-22 09:53:00
6:53 AM,70.0,66.0,87,29.68,10.0,South,16.1,24.2,N/A,,Scattered Clouds,180,2013-09-22 10:53:00
7:25 AM,69.8,66.2,88,29.68,10.0,SSW,18.4,28.8,N/A,,Mostly Cloudy,200,2013-09-22 11:25:00
7:38 AM,69.8,66.2,88,29.69,10.0,SSW,17.3,26.5,N/A,,Mostly Cloudy,200,2013-09-22 11:38:00
7:53 AM,69.1,66.0,90,29.69,8.0,SW,15.0,25.3,0.00,Rain,Light Rain,220,2013-09-22 11:53:00
8:25 AM,68.0,64.4,88,29.69,7.0,SSW,12.7,-,0.03,Rain,Light Rain,210,2013-09-22 12:25:00
8:53 AM,66.9,64.9,93,29.69,7.0,SSW,13.8,-,0.04,Rain,Light Rain,210,2013-09-22 12:53:00
9:31 AM,66.2,64.4,94,29.70,5.0,SW,12.7,-,0.03,Rain,Light Rain,220,2013-09-22 13:31:00
9:53 AM,66.9,66.0,97,29.68,6.0,SW,9.2,-,0.05,Rain,Light Rain,220,2013-09-22 13:53:00
10:53 AM,68.0,64.9,90,29.69,10.0,WSW,5.8,-,0.01,,Overcast,240,2013-09-22 14:53:00
11:12 AM,68.0,64.4,88,29.69,10.0,West,3.5,-,N/A,,Overcast,260,2013-09-22 15:12:00
11:30 AM,66.2,62.6,88,29.69,10.0,West,8.1,-,N/A,,Overcast,280,2013-09-22 15:30:00
11:48 AM,68.0,64.4,88,29.69,10.0,West,4.6,-,N/A,,Overcast,260,2013-09-22 15:48:00
11:53 AM,68.0,64.9,90,29.69,10.0,Variable,3.5,-,N/A,,Overcast,0,2013-09-22 15:53:00
12:35 PM,68.0,64.4,88,29.68,9.0,WNW,6.9,-,0.00,Rain,Light Rain,300,2013-09-22 16:35:00
12:53 PM,68.0,60.1,76,29.68,10.0,NW,9.2,-,0.00,,Overcast,320,2013-09-22 16:53:00
1:12 PM,69.8,60.8,73,29.68,10.0,WNW,9.2,-,N/A,,Overcast,300,2013-09-22 17:12:00
1:53 PM,70.0,61.0,73,29.68,10.0,NW,5.8,-,N/A,,Overcast,310,2013-09-22 17:53:00
2:53 PM,72.0,59.0,64,29.68,10.0,NW,8.1,-,N/A,,Overcast,320,2013-09-22 18:53:00
3:01 PM,71.6,59.0,64,29.68,10.0,West,5.8,-,N/A,,Scattered Clouds,260,2013-09-22 19:01:00
3:53 PM,71.1,57.9,63,29.68,10.0,West,8.1,-,N/A,,Clear,270,2013-09-22 19:53:00
4:53 PM,70.0,55.9,61,29.69,10.0,West,10.4,-,N/A,,Clear,280,2013-09-22 20:53:00
5:53 PM,66.0,57.0,73,29.70,10.0,West,4.6,-,N/A,,Partly Cloudy,270,2013-09-22 21:53:00
6:53 PM,63.0,54.0,72,29.72,10.0,NW,6.9,-,N/A,,Clear,310,2013-09-22 22:53:00
7:53 PM,61.0,50.0,67,29.75,10.0,WNW,5.8,-,N/A,,Scattered Clouds,300,2013-09-22 23:53:00
8:53 PM,61.0,48.9,64,29.77,10.0,NW,9.2,-,N/A,,Clear,320,2013-09-23 00:53:00
9:53 PM,60.1,46.9,62,29.79,10.0,NW,12.7,20.7,N/A,,Clear,320,2013-09-23 01:53:00
10:53 PM,57.9,46.9,67,29.81,10.0,NNW,12.7,20.7,N/A,,Clear,330,2013-09-23 02:53:00
11:53 PM,57.0,46.9,69,29.81,10.0,NNW,15.0,20.7,N/A,,Clear,340,2013-09-23 03:53:00